Flag for Pakistan Weather past 2 weeks in Islamabad, Pakistan

Now
99 °F

Scattered clouds.


Feels Like: 115 °F
Forecast: 77 / 106 °F
Wind: 14 mph from Southeast

Location: Islamabad Airport

Current Time: Jul 22, 2014 at 5:11:57 PM

Latest Report: Jul 22, 2014 at 4:00 PM


Visibility: 2 mi

Pressure: 29.50 "Hg

Humidity: 50%

Dew point: 77 °F

Location of IslamabadLocation

Historic Weather in Islamabad — Graph

°F

Islamabad temperature yesterday

Maximum temperature yesterday: 99 °F (at 2:00 PM)
Minimum temperature yesterday: 82 °F (at 4:00 AM)
Average temperature yesterday: 91 °F

Past Weeks' High & Low Weather Summary

 TemperatureHumidityPressure
High106 °F (Jul 8, 4:00 PM)100% (Jul 19, 7:00 AM)29.65 "Hg (Jul 19, 7:00 AM)
Low68 °F (Jul 19, 6:00 AM)28% (Jul 8, 2:00 PM)29.42 "Hg (Jul 15, 5:00 PM)
Average90 °F58%29.53 "Hg
* Reported Jul 7 4:00 PM — Jul 22 4:00 PM, Islamabad, Weather by CustomWeather, © 2014

Note: Actual official high and low records may vary slightly from our data, if they occured in-between our weather recording intervals... More about our weather records

Advertising

Islamabad weather history for previous 24 hours

 ConditionsComfort  
Time TempWeatherWind HumidityBarometerVisibility
4:00 PM
Jul 22
99 °FScattered clouds.14 mph50%29.50 "Hg2 mi
3:00 PM100 °FScattered clouds.12 mph50%29.50 "Hg2 mi
2:00 PM99 °FScattered clouds.7 mph53%29.53 "Hg2 mi
1:00 PM99 °FScattered clouds.14 mph50%29.56 "Hg2 mi
12:00 PM97 °FScattered clouds.14 mph53%29.56 "Hg2 mi
11:00 AM95 °FHaze.14 mph60%29.56 "Hg2 mi
10:00 AM93 °FHaze.9 mph63%29.56 "Hg2 mi
9:00 AM91 °FHaze.14 mph67%29.56 "Hg2 mi
8:00 AM88 °FHaze.14 mph75%29.56 "Hg2 mi
7:00 AM88 °FHaze.9 mph70%29.56 "Hg2 mi
6:00 AM86 °FScattered clouds.9 mph75%29.56 "Hg2 mi
5:00 AM86 °FHaze.9 mph75%29.53 "Hg3 mi
4:00 AM86 °FPassing clouds.9 mph75%29.53 "Hg3 mi
3:00 AM86 °FHaze.12 mph75%29.53 "Hg3 mi
2:00 AM88 °FHaze.9 mph70%29.53 "Hg3 mi
1:00 AM88 °FHaze.12 mph75%29.53 "Hg3 mi
12:00 AM88 °FHaze.12 mph75%29.53 "Hg3 mi
11:00 PM
Jul 21
88 °FClear.12 mph75%29.53 "Hg3 mi
10:00 PM90 °FClear.12 mph67%29.50 "Hg3 mi
9:00 PM91 °FClear.12 mph67%29.50 "Hg3 mi
8:00 PM93 °FHaze.14 mph56%29.47 "Hg3 mi
7:00 PM95 °FHaze.9 mph53%29.45 "Hg3 mi
6:00 PM97 °FHaze.9 mph50%29.45 "Hg3 mi
5:00 PM97 °FHaze.9 mph50%29.45 "Hg3 mi
Weather by CustomWeather, © 2014

See weather overviewHow to use our weather pages